User: anonymous   Login
Location: NJAA Observatory
(40.6819°N, 74.8979°W)
Time: 17:39:54
(UTC-04:00)
Language:

Meteor 2-9 Rocket - Orbit

View from above orbital plane
View from above orbital plane
View from above satellite
View from above satellite

Ground track
Ground track

The orbit data is extracted from the following two-line orbital elements,

1 13719U 82116B   16120.31892647 -.00000013  00000-0 -13334-4 0  9993
2 13719  81.2569  45.7942 0072875  93.1888  31.3652 14.14579404721853
Epoch (UTC): 29 April 2016 07:39:15
Eccentricity: 0.0072875
inclination: 81.2569°
perigee height: 791 km
apogee height: 896 km
right ascension of ascending node: 45.7942°
argument of perigee: 93.1888°
revolutions per day: 14.14579404
mean anomaly at epoch: 31.3652°
orbit number at epoch: 72185

The dashed part of the orbit path shows where the satellite is in the earth's shadow,  

DLR